Big Rapids, MI

1:11 AM EDT on October 23, 2017 (GMT -0400)
Roben-Hood

Weather History for KRQB - January, 2013

Change the Weather History Date:

Wednesday, January 2, 2013

  Actual Average Record
Temperature  
Mean Temperature 22 °F -  
Max Temperature 26 °F 29 °F 53 °F (2000)
Min Temperature 18 °F 15 °F -5 °F (1979)
Degree Days  
Heating Degree Days 44    
Moisture  
Dew Point 16 °F    
Average Humidity 75    
Maximum Humidity 82    
Minimum Humidity 68    
Precipitation  
Precipitation 0.00 in - - ()
Sea Level Pressure  
Sea Level Pressure 30.06 in    
Wind  
Wind Speed 8 mph (West)    
Max Wind Speed 16 mph    
Max Gust Speed 21 mph    
Visibility 8 miles    
Events Snow    
Averages and records for this station are not official NWS values.
T = Trace of Precipitation, MM = Missing Value Source: NWS Daily Summary

Daily Weather History Graph

Daily Weather History Graph

Search for Another Location

Airport or City:

Trip Planner

Search our weather history database for the weather conditions in past years. The results will help you decide how hot, cold, wet, or windy it might be!

Date:

Astronomy

Jan. 02, 2013 Rise Set
Actual Time 8:15 AM EST 5:16 PM EST
Civil Twilight 7:43 AM EST 5:49 PM EST
Nautical Twilight 7:07 AM EST 6:25 PM EST
Astronomical Twilight 6:32 AM EST 7:00 PM EST
Moon 11:00 PM EST (1/2) 10:46 AM EST (1/2)
Length of Visible Light 10h 06m
Length of Day
9h 00m
Waning Gibbous, 75% of the Moon is Illuminated
Jan 2
Waning Gibbous
Jan 4
Last Quarter
Jan 11
New
Jan 18
First Quarter
Jan 26
Full

Hourly Weather History & Observations

Time (EST) Temp. Windchill Dew Point Humidity Pressure Visibility Wind Dir Wind Speed Gust Speed Precip Events Conditions
12:14 AM 19.0 °F 4.5 °F 10.0 °F 68% 30.02 in 10.0 mi WNW 16.1 mph 20.7 mph N/A   Overcast
12:35 AM 18.5 °F 5.5 °F 10.0 °F 70% 30.02 in 10.0 mi WNW 12.7 mph - N/A   Overcast
12:54 AM 18.7 °F 6.3 °F 10.0 °F 69% 30.02 in 10.0 mi West 11.5 mph - N/A   Overcast
1:14 AM 18.9 °F 9.8 °F 10.2 °F 69% 30.02 in 10.0 mi West 6.9 mph - N/A Snow Light Snow
1:35 AM 18.9 °F 8.8 °F 10.4 °F 70% 30.01 in 10.0 mi West 8.1 mph - N/A   Overcast
1:54 AM 18.7 °F 8.6 °F 10.4 °F 70% 30.01 in 10.0 mi West 8.1 mph - N/A Snow Light Snow
2:14 AM 18.9 °F 12.1 °F 10.8 °F 71% 30.00 in 10.0 mi West 4.6 mph - N/A   Overcast
2:34 AM 19.2 °F 11.3 °F 11.1 °F 71% 30.01 in 10.0 mi West 5.8 mph - N/A   Overcast
2:54 AM 19.9 °F 12.1 °F 11.8 °F 71% 30.01 in 10.0 mi WNW 5.8 mph - N/A Snow Light Snow
3:14 AM 20.3 °F 9.8 °F 12.4 °F 71% 30.02 in 3.0 mi West 9.2 mph - N/A Snow Light Snow
3:34 AM 20.5 °F 10.8 °F 12.6 °F 71% 30.02 in 10.0 mi West 8.1 mph - N/A Snow Light Snow
3:54 AM 20.3 °F 12.5 °F 12.9 °F 73% 30.02 in 10.0 mi West 5.8 mph - N/A   Overcast
4:15 AM 20.7 °F 11.9 °F 13.3 °F 73% 30.03 in 10.0 mi West 6.9 mph - N/A Snow Light Snow
4:34 AM 20.7 °F 14.2 °F 13.5 °F 74% 30.03 in 10.0 mi West 4.6 mph - N/A Snow Light Snow
4:54 AM 21.0 °F 11.4 °F 13.8 °F 74% 30.03 in 10.0 mi West 8.1 mph - N/A Snow Light Snow
5:15 AM 21.2 °F 13.6 °F 14.0 °F 74% 30.03 in 10.0 mi West 5.8 mph 9.2 mph N/A Snow Light Snow
5:34 AM 21.6 °F 10.6 °F 14.4 °F 74% 30.02 in 10.0 mi WNW 10.4 mph - N/A Snow Light Snow
5:54 AM 21.6 °F 11.3 °F 14.4 °F 74% 30.03 in 10.0 mi WNW 9.2 mph - N/A Snow Light Snow
6:15 AM 21.7 °F 10.8 °F 14.5 °F 74% 30.03 in 10.0 mi WNW 10.4 mph 17.3 mph N/A Snow Light Snow
6:34 AM 21.9 °F 8.7 °F 14.7 °F 74% 30.03 in 10.0 mi WNW 15.0 mph - N/A   Overcast
6:54 AM 21.9 °F 10.4 °F 14.9 °F 74% 30.04 in 10.0 mi WNW 11.5 mph - N/A   Overcast
7:15 AM 22.1 °F 12.0 °F 15.4 °F 76% 30.04 in 10.0 mi WNW 9.2 mph 18.4 mph N/A Snow Light Snow
7:34 AM 22.1 °F 12.8 °F 15.4 °F 76% 30.04 in 10.0 mi WNW 8.1 mph - N/A   Overcast
7:55 AM 22.1 °F 12.0 °F 15.6 °F 76% 30.05 in 10.0 mi WNW 9.2 mph - N/A Snow Light Snow
8:14 AM 22.1 °F 8.9 °F 15.8 °F 77% 30.05 in 10.0 mi WNW 15.0 mph 18.4 mph N/A   Overcast
8:34 AM 22.1 °F 12.8 °F 16.2 °F 78% 30.06 in 10.0 mi NW 8.1 mph - N/A Snow Light Snow
8:55 AM 22.5 °F 11.7 °F 16.3 °F 77% 30.06 in 10.0 mi WNW 10.4 mph - N/A Snow Light Snow
9:14 AM 22.5 °F 13.2 °F 16.5 °F 78% 30.07 in 7.0 mi WNW 8.1 mph - N/A Snow Light Snow
9:34 AM 22.6 °F 14.3 °F 16.7 °F 78% 30.07 in 4.0 mi NW 6.9 mph - N/A Snow Light Snow
9:54 AM 22.8 °F 14.5 °F 16.7 °F 77% 30.08 in 2.5 mi WNW 6.9 mph - N/A Snow Light Snow
10:14 AM 23.0 °F 13.9 °F 16.9 °F 77% 30.09 in 2.0 mi WNW 8.1 mph - N/A Snow Light Snow
10:35 AM 23.2 °F 15.0 °F 17.1 °F 77% 30.10 in 2.0 mi WNW 6.9 mph - N/A Snow Light Snow
10:54 AM 23.4 °F - 17.6 °F 79% 30.10 in 1.5 mi Calm Calm - N/A Snow Light Snow
11:14 AM 23.5 °F 19.1 °F 17.6 °F 78% 30.10 in 1.5 mi NW 3.5 mph - N/A Snow Light Snow
11:34 AM 23.7 °F - 17.6 °F 77% 30.11 in 2.0 mi Calm Calm - N/A Snow Light Snow
11:54 AM 23.9 °F - 17.6 °F 77% 30.11 in 4.0 mi Calm Calm - N/A Snow Light Snow
12:14 PM 24.3 °F - 17.6 °F 76% 30.09 in 4.0 mi Calm Calm - N/A Snow Light Snow
12:34 PM 24.4 °F - 17.6 °F 75% 30.08 in 4.0 mi Calm Calm - N/A Snow Light Snow
12:54 PM 24.8 °F 20.5 °F 17.8 °F 75% 30.08 in 4.0 mi WNW 3.5 mph - N/A Snow Light Snow
1:14 PM 25.3 °F - 18.0 °F 74% 30.08 in 2.5 mi Calm Calm - N/A Snow Light Snow
1:34 PM 25.3 °F - 18.0 °F 74% 30.08 in 2.5 mi Calm Calm - N/A Snow Light Snow
1:55 PM 25.3 °F - 18.3 °F 75% 30.06 in 4.0 mi Calm Calm - N/A Snow Light Snow
2:14 PM 25.5 °F 19.9 °F 18.3 °F 74% 30.06 in 10.0 mi SW 4.6 mph - N/A   Overcast
2:35 PM 25.7 °F 19.0 °F 17.4 °F 71% 30.06 in 10.0 mi West 5.8 mph - N/A Snow Light Snow
2:54 PM 25.7 °F 21.5 °F 17.6 °F 71% 30.06 in 10.0 mi WSW 3.5 mph - N/A Snow Light Snow
3:14 PM 25.5 °F 18.7 °F 18.3 °F 74% 30.06 in 10.0 mi WSW 5.8 mph 9.2 mph N/A   Overcast
3:34 PM 25.5 °F 18.7 °F 18.5 °F 75% 30.07 in 10.0 mi WSW 5.8 mph - N/A   Overcast
3:54 PM 25.3 °F 17.6 °F 18.1 °F 74% 30.07 in 10.0 mi WSW 6.9 mph - N/A   Overcast
4:14 PM 25.2 °F 19.5 °F 18.0 °F 74% 30.08 in 10.0 mi West 4.6 mph - N/A   Overcast
4:34 PM 25.2 °F 18.3 °F 18.0 °F 74% 30.08 in 10.0 mi SW 5.8 mph - N/A   Overcast
4:54 PM 24.8 °F 19.1 °F 18.1 °F 76% 30.08 in 10.0 mi West 4.6 mph - N/A   Overcast
5:15 PM 24.8 °F - 18.3 °F 76% 30.08 in 10.0 mi Calm Calm - N/A   Overcast
5:34 PM 24.8 °F - 18.5 °F 77% 30.08 in 10.0 mi Calm Calm - N/A   Overcast
5:54 PM 24.8 °F 20.5 °F 18.7 °F 78% 30.09 in 10.0 mi SSW 3.5 mph - N/A   Overcast
6:15 PM 24.8 °F - 19.0 °F 79% 30.08 in 10.0 mi Calm Calm - N/A   Overcast
6:34 PM 24.8 °F - 19.4 °F 80% 30.09 in 10.0 mi Calm Calm - N/A   Overcast
6:54 PM 24.8 °F 19.1 °F 19.4 °F 80% 30.09 in 7.0 mi SSE 4.6 mph - N/A   Overcast
7:15 PM 24.8 °F 20.5 °F 19.8 °F 81% 30.09 in 10.0 mi SSE 3.5 mph - N/A   Overcast
7:34 PM 24.8 °F 20.5 °F 19.9 °F 82% 30.09 in 10.0 mi SSE 3.5 mph - N/A   Overcast
7:54 PM 25.2 °F - 20.1 °F 81% 30.08 in 10.0 mi Calm Calm - N/A   Overcast
8:34 PM 25.3 °F 21.1 °F 20.3 °F 81% 30.07 in 10.0 mi SSE 3.5 mph - N/A   Overcast
8:54 PM 25.3 °F 21.1 °F 20.3 °F 81% 30.06 in 10.0 mi SSE 3.5 mph - N/A   Overcast
9:15 PM 25.5 °F 18.7 °F 20.3 °F 81% 30.06 in 10.0 mi South 5.8 mph - N/A   Overcast
9:34 PM 25.5 °F 19.9 °F 20.5 °F 81% 30.06 in 10.0 mi South 4.6 mph - N/A   Overcast
9:54 PM 25.7 °F 18.0 °F 20.8 °F 82% 30.06 in 10.0 mi South 6.9 mph - N/A   Overcast
10:14 PM 25.7 °F 16.4 °F 20.8 °F 82% 30.05 in 10.0 mi South 9.2 mph - N/A   Overcast
10:34 PM 25.7 °F 15.7 °F 20.1 °F 79% 30.04 in 10.0 mi South 10.4 mph - N/A   Overcast
10:54 PM 25.9 °F 15.3 °F 18.5 °F 74% 30.04 in 10.0 mi South 11.5 mph 16.1 mph N/A   Overcast
11:14 PM 25.7 °F 18.0 °F 18.3 °F 74% 30.04 in 10.0 mi South 6.9 mph - N/A   Overcast
11:34 PM 25.5 °F 16.9 °F 17.6 °F 72% 30.04 in 10.0 mi South 8.1 mph - N/A   Overcast
11:54 PM 25.3 °F 17.6 °F 17.1 °F 71% 30.04 in 10.0 mi South 6.9 mph - N/A   Overcast